{"data":{"norad_id":57671,"epoch":"2026-09-20T13:05:46.606848Z","epoch_age_seconds":127626,"freshness":"FRESH","line1":"1 57671U 23124J   26263.54567832 -.00002610  00000+0 -66120-4 0  9996","line2":"2 57671  53.1627  19.3636 0000450  37.8185 322.2849 15.34410114173433","mean_motion":15.34410114,"eccentricity":4.5e-5,"inclination_deg":53.1627,"raan_deg":19.3636,"arg_perigee_deg":37.8185,"mean_anomaly_deg":322.2849,"bstar":-6.612e-5,"rev_number":17343,"period_min":93.847139487768,"perigee_km":462.36534297472,"apogee_km":462.98101589087,"semimajor_km":6840.8101794328,"source":"CELESTRAK","updated_at":"2026-09-21T09:00:33.671254Z"}}